User: anonymous   Login
Location: Caltech
(34.1382°N, 118.1253°W)
Time: 21:23:21
(UTC-08:00)
Language:

OAO 2 Rocket - Orbit

View from above orbital plane
View from above orbital plane
View from above satellite
View from above satellite

Ground track
Ground track

The orbit data is extracted from the following two-line orbital elements,

1 03598U 68110B   17328.86263436  .00000071  00000-0  21153-4 0  9994
2 03598  34.9920 149.8855 0048484  91.1189 269.5059 14.54341306589875
Epoch (UTC): 24 November 2017 20:42:11
Eccentricity: 0.0048484
inclination: 34.9920°
perigee height: 677 km
apogee height: 746 km
right ascension of ascending node: 149.8855°
argument of perigee: 91.1189°
revolutions per day: 14.54341306
mean anomaly at epoch: 269.5059°
orbit number at epoch: 58987

The dashed part of the orbit path shows where the satellite is in the earth's shadow,  

DLR